Year,Month,Day,Hour,Minute,Value (Times are PST for temperature in C)
2020,04,11,12,15,13.00
2020,04,11,12,16,12.90
2020,04,11,12,17,12.80
2020,04,11,12,18,12.80
2020,04,11,12,19,12.90
2020,04,11,12,20,13.00
2020,04,11,12,21,13.10
2020,04,11,12,22,13.10
2020,04,11,12,23,13.20
2020,04,11,12,24,13.20
2020,04,11,12,25,13.20
2020,04,11,12,26,13.30
2020,04,11,12,27,13.30
2020,04,11,12,28,13.30
2020,04,11,12,29,13.30
2020,04,11,12,30,13.30
2020,04,11,12,31,13.30
2020,04,11,12,32,13.20
2020,04,11,12,33,13.20
2020,04,11,12,34,13.20
2020,04,11,12,35,13.30
2020,04,11,12,36,13.40
2020,04,11,12,37,13.40
2020,04,11,12,38,13.40
2020,04,11,12,39,13.40
2020,04,11,12,40,13.30
2020,04,11,12,41,13.20
2020,04,11,12,42,13.20
2020,04,11,12,43,13.20
2020,04,11,12,44,13.30
2020,04,11,12,45,13.40
2020,04,11,12,46,13.50
2020,04,11,12,47,13.50
2020,04,11,12,48,13.60
2020,04,11,12,49,13.60
2020,04,11,12,50,13.60
2020,04,11,12,51,13.70
2020,04,11,12,52,13.70
2020,04,11,12,53,13.70
2020,04,11,12,54,13.80
2020,04,11,12,55,13.70
2020,04,11,12,56,13.70
2020,04,11,12,57,13.60
2020,04,11,12,58,13.60
2020,04,11,12,59,13.70
2020,04,11,13,00,13.80
2020,04,11,13,01,13.80
2020,04,11,13,02,13.90
2020,04,11,13,03,13.90
2020,04,11,13,04,13.90
2020,04,11,13,05,13.90
2020,04,11,13,06,13.90
2020,04,11,13,07,13.80
2020,04,11,13,08,13.80
2020,04,11,13,09,13.80
2020,04,11,13,10,13.70
2020,04,11,13,11,13.80
2020,04,11,13,12,13.80
2020,04,11,13,13,13.80
2020,04,11,13,14,13.80
2020,04,11,13,15,14.00
2020,04,11,13,16,14.00
2020,04,11,13,17,14.10
2020,04,11,13,18,14.00
2020,04,11,13,19,13.90
2020,04,11,13,20,13.80
2020,04,11,13,21,13.70
2020,04,11,13,22,13.80
2020,04,11,13,23,13.80
2020,04,11,13,24,13.70
2020,04,11,13,25,13.80
2020,04,11,13,26,13.80
2020,04,11,13,27,13.70
2020,04,11,13,28,13.80
2020,04,11,13,29,13.90
2020,04,11,13,30,13.90
2020,04,11,13,31,14.00
2020,04,11,13,32,14.10
2020,04,11,13,33,14.00
2020,04,11,13,34,13.90
2020,04,11,13,35,13.90
2020,04,11,13,36,13.90
2020,04,11,13,37,13.80
2020,04,11,13,38,13.80
2020,04,11,13,39,13.90
2020,04,11,13,40,14.00
2020,04,11,13,41,14.10
2020,04,11,13,42,14.20
2020,04,11,13,43,14.30
2020,04,11,13,44,14.30
2020,04,11,13,45,14.30
2020,04,11,13,46,14.30
2020,04,11,13,47,14.20
2020,04,11,13,48,14.30
2020,04,11,13,49,14.40
2020,04,11,13,50,14.50
2020,04,11,13,51,14.50
2020,04,11,13,52,14.40
2020,04,11,13,53,14.30
2020,04,11,13,54,14.20
2020,04,11,13,55,14.20
2020,04,11,13,56,14.20
2020,04,11,13,57,14.20
2020,04,11,13,58,14.20
2020,04,11,13,59,14.20
2020,04,11,14,00,14.20
2020,04,11,14,01,14.20
2020,04,11,14,02,14.30
2020,04,11,14,03,14.30
2020,04,11,14,04,14.20
2020,04,11,14,05,14.20
2020,04,11,14,06,14.20
2020,04,11,14,07,14.20
2020,04,11,14,08,14.30
2020,04,11,14,09,14.30
2020,04,11,14,10,14.20
2020,04,11,14,11,14.30
2020,04,11,14,12,14.40
2020,04,11,14,13,14.50
2020,04,11,14,14,14.50
2020,04,11,14,15,14.60
2020,04,11,14,16,14.70
2020,04,11,14,17,14.70
2020,04,11,14,18,14.70
2020,04,11,14,19,14.60
2020,04,11,14,20,14.50
2020,04,11,14,21,14.50
2020,04,11,14,22,14.60
2020,04,11,14,23,14.60
2020,04,11,14,24,14.60
2020,04,11,14,25,14.60
2020,04,11,14,26,14.60
2020,04,11,14,27,14.70
2020,04,11,14,28,14.60
2020,04,11,14,29,14.60
2020,04,11,14,30,14.60
2020,04,11,14,31,14.60
2020,04,11,14,32,14.60
2020,04,11,14,33,14.60
2020,04,11,14,34,14.70
2020,04,11,14,35,14.80
2020,04,11,14,36,14.80
2020,04,11,14,37,14.70
2020,04,11,14,38,14.70
2020,04,11,14,39,14.70
2020,04,11,14,40,14.70
2020,04,11,14,41,14.70
2020,04,11,14,42,14.80
2020,04,11,14,43,14.80
2020,04,11,14,44,14.80
2020,04,11,14,45,14.90
2020,04,11,14,46,14.90
2020,04,11,14,47,14.80
2020,04,11,14,48,14.70
2020,04,11,14,49,14.60
2020,04,11,14,50,14.60
2020,04,11,14,51,14.70
2020,04,11,14,52,14.70
2020,04,11,14,53,14.60
2020,04,11,14,54,14.40
2020,04,11,14,55,14.30
2020,04,11,14,56,14.30
2020,04,11,14,57,14.10
2020,04,11,14,58,14.10
2020,04,11,14,59,14.00
2020,04,11,15,00,14.00
2020,04,11,15,01,13.90
2020,04,11,15,02,13.90
2020,04,11,15,03,13.80
2020,04,11,15,04,13.70
2020,04,11,15,05,13.60
2020,04,11,15,06,13.50
2020,04,11,15,07,13.50
2020,04,11,15,08,13.60
2020,04,11,15,09,13.60
2020,04,11,15,10,13.60
2020,04,11,15,11,13.70
2020,04,11,15,12,13.80
2020,04,11,15,13,13.80
2020,04,11,15,14,13.80
2020,04,11,15,15,13.80
2020,04,11,15,16,13.90
2020,04,11,15,17,14.00
2020,04,11,15,18,14.20
2020,04,11,15,19,14.30
2020,04,11,15,20,14.40
2020,04,11,15,21,14.40
2020,04,11,15,22,14.50
2020,04,11,15,23,14.50
2020,04,11,15,24,14.40
2020,04,11,15,25,14.30
2020,04,11,15,26,14.20
2020,04,11,15,27,14.20
2020,04,11,15,28,14.20
2020,04,11,15,29,14.20
2020,04,11,15,30,14.20
2020,04,11,15,31,14.10
2020,04,11,15,32,14.20
2020,04,11,15,33,14.30
2020,04,11,15,34,14.40
2020,04,11,15,35,14.50
2020,04,11,15,36,14.60
2020,04,11,15,37,14.70
2020,04,11,15,38,14.80
2020,04,11,15,39,14.80
2020,04,11,15,40,14.80
2020,04,11,15,41,14.80
2020,04,11,15,42,14.70
2020,04,11,15,43,14.70
2020,04,11,15,44,14.70
2020,04,11,15,45,14.60
2020,04,11,15,46,14.50
2020,04,11,15,47,14.30
2020,04,11,15,48,14.30
2020,04,11,15,49,14.30
2020,04,11,15,50,14.30
2020,04,11,15,51,14.40
2020,04,11,15,52,14.50
2020,04,11,15,53,14.50
2020,04,11,15,54,14.60
2020,04,11,15,55,14.70
2020,04,11,15,56,14.80
2020,04,11,15,57,14.80
2020,04,11,15,58,14.80
2020,04,11,15,59,14.90
2020,04,11,16,00,15.00
2020,04,11,16,01,15.10
2020,04,11,16,02,15.20
2020,04,11,16,03,15.10
2020,04,11,16,04,15.00
2020,04,11,16,05,14.80
2020,04,11,16,06,14.80
2020,04,11,16,07,14.80
2020,04,11,16,08,14.90
2020,04,11,16,09,14.90
2020,04,11,16,10,14.90
2020,04,11,16,11,15.00
2020,04,11,16,12,14.90
2020,04,11,16,13,14.90
2020,04,11,16,14,14.80
2020,04,11,16,15,14.80
2020,04,11,16,16,14.70
2020,04,11,16,17,14.50
2020,04,11,16,18,14.40
2020,04,11,16,19,14.40
2020,04,11,16,20,14.40
2020,04,11,16,21,14.30
2020,04,11,16,22,14.30
2020,04,11,16,23,14.30
2020,04,11,16,24,14.40
2020,04,11,16,25,14.40
2020,04,11,16,26,14.30
2020,04,11,16,27,14.30
2020,04,11,16,28,14.30
2020,04,11,16,29,14.30
2020,04,11,16,30,14.20
2020,04,11,16,31,14.10
2020,04,11,16,32,13.90
2020,04,11,16,33,13.90
2020,04,11,16,34,13.80
2020,04,11,16,35,13.70
2020,04,11,16,36,13.70
2020,04,11,16,37,13.70
2020,04,11,16,38,13.60
2020,04,11,16,39,13.60
2020,04,11,16,40,13.60
2020,04,11,16,41,13.60
2020,04,11,16,42,13.60
2020,04,11,16,43,13.50
2020,04,11,16,44,13.50
2020,04,11,16,45,13.40
2020,04,11,16,46,13.40
2020,04,11,16,47,13.40
2020,04,11,16,48,13.50
2020,04,11,16,49,13.50
2020,04,11,16,50,13.60
2020,04,11,16,51,13.60
2020,04,11,16,52,13.70
2020,04,11,16,53,13.70
2020,04,11,16,54,13.70
2020,04,11,16,55,13.80
2020,04,11,16,56,13.90
2020,04,11,16,57,14.00
2020,04,11,16,58,14.00
2020,04,11,16,59,14.00
2020,04,11,17,00,14.00
2020,04,11,17,01,14.00
2020,04,11,17,02,14.00
2020,04,11,17,03,14.00
2020,04,11,17,04,13.90
2020,04,11,17,05,13.90
2020,04,11,17,06,13.90
2020,04,11,17,07,13.90
2020,04,11,17,08,13.90
2020,04,11,17,09,14.00
2020,04,11,17,10,13.90
2020,04,11,17,11,13.90
2020,04,11,17,12,13.80
2020,04,11,17,13,13.80
2020,04,11,17,14,13.80
2020,04,11,17,15,13.90
2020,04,11,17,16,13.90
2020,04,11,17,17,13.90
2020,04,11,17,18,13.90
2020,04,11,17,19,14.00
2020,04,11,17,20,14.00
2020,04,11,17,21,14.00
2020,04,11,17,22,14.00
2020,04,11,17,23,14.10
2020,04,11,17,24,14.10
2020,04,11,17,25,14.10
2020,04,11,17,26,14.10
2020,04,11,17,27,14.10
2020,04,11,17,28,14.10
2020,04,11,17,29,14.00
2020,04,11,17,30,13.90
2020,04,11,17,31,13.80
2020,04,11,17,32,13.80
2020,04,11,17,33,13.80
2020,04,11,17,34,13.80
2020,04,11,17,35,13.80
2020,04,11,17,36,13.80
2020,04,11,17,37,13.80
2020,04,11,17,38,13.90
2020,04,11,17,39,13.90
2020,04,11,17,40,13.90
2020,04,11,17,41,13.90
2020,04,11,17,42,13.90
2020,04,11,17,43,13.90
2020,04,11,17,44,13.90
2020,04,11,17,45,13.80
2020,04,11,17,46,13.80
2020,04,11,17,47,13.80
2020,04,11,17,48,13.80
2020,04,11,17,49,13.80
2020,04,11,17,50,13.70
2020,04,11,17,51,13.70
2020,04,11,17,52,13.70
2020,04,11,17,53,13.70
2020,04,11,17,54,13.70
2020,04,11,17,55,13.70
2020,04,11,17,56,13.70
2020,04,11,17,57,13.80
2020,04,11,17,58,13.80
2020,04,11,17,59,13.70
2020,04,11,18,00,13.70
2020,04,11,18,01,13.70
2020,04,11,18,02,13.70
2020,04,11,18,03,13.70
2020,04,11,18,04,13.70
2020,04,11,18,05,13.70
2020,04,11,18,06,13.70
2020,04,11,18,07,13.60
2020,04,11,18,08,13.60
2020,04,11,18,09,13.60
2020,04,11,18,10,13.60
2020,04,11,18,11,13.70
2020,04,11,18,12,13.60
2020,04,11,18,13,13.60
2020,04,11,18,14,13.70
2020,04,11,18,15,13.70
2020,04,11,18,16,13.70
2020,04,11,18,17,13.70
2020,04,11,18,18,13.60
2020,04,11,18,19,13.60
2020,04,11,18,20,13.60
2020,04,11,18,21,13.50
2020,04,11,18,22,13.50
2020,04,11,18,23,13.50
2020,04,11,18,24,13.50
2020,04,11,18,25,13.50
2020,04,11,18,26,13.50
2020,04,11,18,27,13.50
2020,04,11,18,28,13.50
2020,04,11,18,29,13.40
2020,04,11,18,30,13.40
2020,04,11,18,31,13.40
2020,04,11,18,32,13.40
2020,04,11,18,33,13.40
2020,04,11,18,34,13.40
2020,04,11,18,35,13.40
2020,04,11,18,36,13.30
2020,04,11,18,37,13.30
2020,04,11,18,38,13.30
2020,04,11,18,39,13.30
2020,04,11,18,40,13.30
2020,04,11,18,41,13.20
2020,04,11,18,42,13.20
2020,04,11,18,43,13.20
2020,04,11,18,44,13.20
2020,04,11,18,45,13.20
2020,04,11,18,46,13.20
2020,04,11,18,47,13.20
2020,04,11,18,48,13.10
2020,04,11,18,49,13.10
2020,04,11,18,50,13.10
2020,04,11,18,51,13.10
2020,04,11,18,52,13.10
2020,04,11,18,53,13.10
2020,04,11,18,54,13.10
2020,04,11,18,55,13.10
2020,04,11,18,56,13.10
2020,04,11,18,57,13.10
2020,04,11,18,58,13.10
2020,04,11,18,59,13.10
2020,04,11,19,00,13.00
2020,04,11,19,01,13.00
2020,04,11,19,02,13.00
2020,04,11,19,03,13.00
2020,04,11,19,04,12.90
2020,04,11,19,05,12.90
2020,04,11,19,06,12.90
2020,04,11,19,07,12.90
2020,04,11,19,08,12.90
2020,04,11,19,09,12.90
2020,04,11,19,10,12.90
2020,04,11,19,11,12.80
2020,04,11,19,12,12.80
2020,04,11,19,13,12.80
2020,04,11,19,14,12.80
2020,04,11,19,15,12.70
2020,04,11,19,16,12.70
2020,04,11,19,17,12.60
2020,04,11,19,18,12.60
2020,04,11,19,19,12.60
2020,04,11,19,20,12.60
2020,04,11,19,21,12.50
2020,04,11,19,22,12.50
2020,04,11,19,23,12.50
2020,04,11,19,24,12.50
2020,04,11,19,25,12.50
2020,04,11,19,26,12.50
2020,04,11,19,27,12.40
2020,04,11,19,28,12.40
2020,04,11,19,29,12.40
2020,04,11,19,30,12.40
2020,04,11,19,31,12.30
2020,04,11,19,32,12.30
2020,04,11,19,33,12.30
2020,04,11,19,34,12.30
2020,04,11,19,35,12.30
2020,04,11,19,36,12.30
2020,04,11,19,37,12.30
2020,04,11,19,38,12.20
2020,04,11,19,39,12.20
2020,04,11,19,40,12.20
2020,04,11,19,41,12.20
2020,04,11,19,42,12.20
2020,04,11,19,43,12.10
2020,04,11,19,44,12.10
2020,04,11,19,45,12.10
2020,04,11,19,46,12.10
2020,04,11,19,47,12.10
2020,04,11,19,48,12.00
2020,04,11,19,49,11.90
2020,04,11,19,50,11.90
2020,04,11,19,51,11.90
2020,04,11,19,52,11.90
2020,04,11,19,53,11.90
2020,04,11,19,54,11.90
2020,04,11,19,55,11.90
2020,04,11,19,56,11.90
2020,04,11,19,57,11.90
2020,04,11,19,58,11.90
2020,04,11,19,59,11.90
